カタログに戻る

CZ-6A DEB

運用中PO
NORAD 61401·DEBRIS·🇨🇳 China

打ち上げ Aug 6, 2024 から Taiyuan Satellite Launch Center

Loading…

次のパス (今後24時間)

TLE

最新Source: Space-Track

元期: Sep 14, 2026, 06:52 UTC

1 61401U 24140XS  26257.28645800  .00002459  00000-0  10161-2 0  9999
2 61401  88.9960 264.1973 0046079 256.9660 102.6387 14.25894356104511

AllMySatでCZ-6A DEBをリアルタイム追跡

Download on the App Store